Location: Newark
(13.0494°N, 109.3336°E)
Time: 22:03:35
(UTC+00:00)

Envisat - Visible Passes

Search period start: 08 December 2019 00:00
Search period end: 18 December 2019 00:00
Orbit: 764 x 766 km, 98.1° (Epoch: 08 December)

Date Brightness Start Highest point End Pass type
(mag) Time Alt. Az. Time Alt. Az. Time Alt. Az.
08 Dec 5.9 12:03:33 10° SW 12:06:38 16° W 12:09:44 10° WNW visible
09 Dec 4.2 11:25:03 10° S 11:29:52 45° W 11:34:42 10° NNW visible
09 Dec 6.2 22:12:20 10° ENE 22:14:57 14° E 22:17:34 10° SE visible
10 Dec 3.0 10:48:10 10° SSE 10:53:11 64° ENE 10:58:11 10° N visible
11 Dec 5.5 11:51:30 10° SSW 11:55:21 22° W 11:59:14 10° NW visible
12 Dec 3.5 11:13:36 10° S 11:18:37 62° WSW 11:23:37 10° NNW visible
13 Dec 3.2 10:37:06 10° SSE 10:41:56 47° ENE 10:46:47 10° N visible
13 Dec 6.3 12:20:28 10° WSW 12:20:52 10° W 12:21:14 10° W visible
14 Dec 5.0 11:39:42 10° SSW 11:44:04 30° W 11:48:27 10° NW visible
14 Dec 5.9 22:25:20 10° NE 22:29:11 22° E 22:33:00 10° SSE visible
15 Dec 3.1 11:02:17 10° S 11:07:21 84° WSW 11:12:25 10° NNW visible
16 Dec 6.0 12:06:54 10° SW 12:09:34 14° W 12:12:15 10° WNW visible
17 Dec 4.4 11:28:04 10° S 11:32:48 40° W 11:37:32 10° NNW visible
17 Dec 6.1 22:14:51 10° ENE 22:17:53 16° E 22:20:55 10° SE visible
